Home > Weather > Mesa > Past weeks

Flag for USA Past Weather in Mesa, Arizona, USA — Yesterday and Last 2 Weeks

Now
88 °F

Scattered clouds.


Feels Like: 89 °F
Forecast: 87 / 108 °F
Wind: 8 mph from East

Location: Williams Gateway Airport

Current Time: Jun 28, 2016 at 8:10:22 AM

Latest Report: Jun 28, 2016 at 6:47 AM


Visibility: 45 mi

Pressure: 29.94 "Hg

Humidity: 46%

Dew Point: 64 °F

Location of MesaLocation

Past Weather in Mesa — Graph

°F

Mesa Temperature Yesterday

Maximum temperature yesterday: 106 °F (at 1:50 PM)
Minimum temperature yesterday: 82 °F (at 2:55 AM)
Average temperature yesterday: 92 °F

High & Low Weather Summary for the Past Weeks

 TemperatureHumidityPressure
High117 °F (Jun 19, 3:52 PM)66% (Jun 28, 2:55 AM)30.03 "Hg (Jun 28, 2:55 AM)
Low66 °F (Jun 15, 4:35 AM)5% (Jun 14, 3:47 PM)29.73 "Hg (Jun 19, 4:59 PM)
Average88 °F22%29.88 "Hg
* Reported Jun 13 6:50 AM — Jun 28 6:47 AM, Mesa, Weather by CustomWeather, © 2016

Note: Actual official high and low records may vary slightly from our data, if they occured in-between our weather recording intervals... More about our weather records

Advertising

Mesa Weather History for the Previous 24 Hours

Scroll right to see more
 ConditionsComfort  
Time TempWeatherWind HumidityBarometerVisibility
6:47 AM
Tue, Jun 28
88 °FScattered clouds.8 mph46%29.94 "Hg45 mi
5:47 AM84 °FPartly sunny.7 mph55%29.92 "Hg45 mi
5:00 AM82 °FClear.6 mph62%29.90 "Hg20 mi
4:35 AM82 °FClear.6 mph58%29.90 "Hg10 mi
4:15 AM81 °FClear.6 mph58%29.90 "Hg10 mi
3:55 AM81 °FClear.5 mph58%29.89 "Hg10 mi
3:35 AM81 °FClear.3 mph66%29.89 "Hg10 mi
3:15 AM81 °FClear.5 mph66%29.90 "Hg10 mi
2:55 AM81 °FClear.6 mph66%29.89 "Hg10 mi
2:35 AM82 °FClear.6 mph62%29.88 "Hg10 mi
2:15 AM82 °FClear.7 mph58%29.88 "Hg10 mi
1:55 AM84 °FClear.6 mph48%29.88 "Hg10 mi
1:35 AM82 °FClear.6 mph55%29.88 "Hg10 mi
1:15 AM84 °FClear.6 mph48%29.88 "Hg10 mi
12:55 AM82 °FClear.5 mph55%29.88 "Hg10 mi
12:35 AM86 °FClear.8 mph46%29.88 "Hg10 mi
12:15 AM88 °FClear.3 mph43%29.89 "Hg10 mi
11:47 PM
Mon, Jun 27
90 °FPassing clouds.6 mph41%29.89 "Hg20 mi
9:47 PM95 °FThunderstorms. Passing clouds.20 mph26%29.90 "Hg2 mi
8:47 PM100 °FPassing clouds.5 mph20%29.86 "Hg20 mi
7:50 PM102 °FPassing clouds.9 mph18%29.83 "Hg20 mi
6:47 PM106 °FScattered clouds.12 mph18%29.82 "Hg35 mi
5:47 PM106 °FScattered clouds.8 mph18%29.82 "Hg35 mi
4:47 PM106 °FScattered clouds.6 mph18%29.83 "Hg35 mi
3:47 PM106 °FScattered clouds.9 mph18%29.84 "Hg45 mi
2:47 PM106 °FScattered clouds.8 mph18%29.87 "Hg45 mi
1:50 PM106 °FScattered clouds.12 mph19%29.89 "Hg45 mi
12:53 PM102 °FPartly sunny.7 mph20%29.92 "Hg35 mi
11:59 AM100 °FPartly sunny.6 mph21%29.95 "Hg35 mi
10:54 AM99 °FScattered clouds.No wind24%29.97 "Hg45 mi
9:47 AM97 °FScattered clouds.7 mph27%29.97 "Hg45 mi
8:47 AM93 °FBroken clouds.6 mph32%29.99 "Hg45 mi
Weather by CustomWeather, © 2016

See weather overviewHow to use our weather pages